Hourly Data Report for September 29, 2017

All times are specified in Local Standard Time (LST). Add 1 hour to adjust for Daylight Saving Time where and when it is observed.

KITCHENER/WATERLOO
ONTARIO

43°27'39.000" N
80°22'43.000" W
321.60 m
6144239
71368
YKF

Download Data

Hourly Data (September 2017)
Hourly Data Report for September 29, 2017
Temp Definition
°C
Dew Point Temp Definition
°C
Rel Hum Definition
%
Wind Dir Definition
10's deg

Wind Spd Definition
km/h
Visibility Definition
km
Stn Press Definition
kPa
Hmdx Definition


Wind Chill Definition


Weather Definition


TIME
00:00 Legend Double Dagger 5.9 5.8 99 6 4 16.1 98.07     LegendNANA
01:00 Legend Double Dagger 7.2 6.2 93   0 16.1 98.05     LegendNANA
02:00 Legend Double Dagger 6.6 6.1 97 10 5 16.1 98.03     LegendNANA
03:00 Legend Double Dagger 7.1 6.2 94 LegendMM 4 16.1 98.01     LegendNANA
04:00 Legend Double Dagger 6.5 5.7 95 13 4 16.1 97.96     LegendNANA
05:00 Legend Double Dagger 6.6 5.4 92 13 5 16.1 97.91     LegendNANA
06:00 Legend Double Dagger 8.9 6.8 86 14 13 16.1 97.87     LegendNANA
07:00 Legend Double Dagger 9.9 7.7 86 15 13 16.1 97.91     Rain
08:00 Legend Double Dagger 9.6 8.2 91 16 5 6.4 97.88     Moderate Rain,Fog
09:00 Legend Double Dagger 10.3 9.5 95 16 15 16.1 97.77     Rain
10:00 Legend Double Dagger 12.3 11.2 93 20 17 16.1 97.70     LegendNANA
11:00 Legend Double Dagger 15.3 12.6 84 23 22 16.1 97.64     LegendNANA
12:00 Legend Double Dagger 15.8 11.2 74 24 32 16.1 97.54     LegendNANA
13:00 Legend Double Dagger 15.9 12.9 82 26 32 16.1 97.53     Thunderstorms
14:00 Legend Double Dagger 12.1 10.8 92 29 34 9.7 97.60     Rain,Fog
15:00 Legend Double Dagger 13.5 8.7 72 30 37 16.1 97.60     LegendNANA
16:00 Legend Double Dagger 12.1 7.1 71 30 46 16.1 97.67     LegendNANA
17:00 Legend Double Dagger 11.2 6.4 72 30 43 16.1 97.76     LegendNANA
18:00 Legend Double Dagger 9.8 6.4 79 31 43 16.1 97.86     LegendNANA
19:00 Legend Double Dagger 8.9 5.4 79 33 35 16.1 97.99     LegendNANA
20:00 Legend Double Dagger 8.9 5.5 79 33 34 16.1 98.10     LegendNANA
21:00 Legend Double Dagger 8.5 5.3 80 34 28 16.1 98.22     LegendNANA
22:00 Legend Double Dagger 8.5 5.4 81 34 24 16.1 98.33     LegendNANA
23:00 Legend Double Dagger 7.5 5.0 84 35 15 16.1 98.43     LegendNANA

Notes on Data Quality.

Legend

  • E = Estimated
  • M = Missing
  • NA = Not Available
  • ‡ = Partner data that is not subject to review by the National Climate Archives
Date modified: